Regional Weather Roundup
Issued by NWS

Home | Current Version | Previous Version | Graphics & Text | Print | Product List | Glossary On
Versions: 1 2 3 4 5 6 7 8 9 10 11 12 13 14 15 16 17 18 19 20 21 22 23 24 25 26 27 28 29 30 31 32 33 34 35 36 37 38 39 40 41 42 43 44 45 46 47 48 49 50
000
ASUS43 KOAX 281410
RWRNE

WEATHER ROUNDUP FOR NEBRASKA
NATIONAL WEATHER SERVICE OMAHA NE
900 AM CDT THU MAY 28 2015

NOTES: SATELLITE DATA IS BEING USED TO AUGMENT CLOUD COVER ABOVE
       12000 FEET.
       "FAIR" INDICATES FEW OR NO CLOUDS BELOW 12,000 FEET WITH NO
       SIGNIFICANT WEATHER AND/OR OBSTRUCTIONS TO VISIBILITY.

  * THESE STATIONS DO NOT REPORT WEATHER SUCH AS RAIN...SNOW OR FOG.

NEZ001>004-019>022-054>056-281500-
NEBRASKA PANHANDLE

CITY           SKY/WX    TMP DP  RH WIND       PRES   REMARKS
SCOTTSBLUFF    MOSUNNY   60  55  83 CALM      30.01R
ALLIANCE       PTSUNNY   61  55  81 SW9       29.99F
CHADRON        PTSUNNY   61  55  81 W8        29.95F
KIMBALL          N/A    N/A N/A N/A MISG        N/A
SIDNEY         LGT RAIN  58  55  90 W8        30.02S FOG
$$

NEZ057>060-069>072-079>082-281500-
SOUTHWEST NEBRASKA

CITY           SKY/WX    TMP DP  RH WIND       PRES   REMARKS
NORTH PLATTE   MOSUNNY   58  57  97 SE9       29.99S
IMPERIAL       PTSUNNY   61  56  83 S9        29.99F
LEXINGTON      CLOUDY    62  62  97 SE5       30.03R FOG
MCCOOK         CLOUDY    58  56  93 E6        30.01S
OGALLALA       PTSUNNY   60  56  89 SE3       30.00R
$$

NEZ005>010-023>029-035>040-094-281500-
NORTH CENTRAL NEBRASKA

CITY           SKY/WX    TMP DP  RH WIND       PRES   REMARKS
VALENTINE      SUNNY     65  56  72 S10       29.95F
AINSWORTH      SUNNY     67  59  77 S10       29.97F
BROKEN BOW     PTSUNNY   63  60  90 SE8       30.00F
O`NEILL        MOSUNNY   67  61  80 S10       29.99F
ORD            PTSUNNY   65  59  81 S5        30.00F
THEDFORD       MOSUNNY   63  59  85 S3        29.99R
$$

NEZ041-046>049-061>064-073>077-083>087-281500-
SOUTH CENTRAL NEBRASKA

CITY           SKY/WX    TMP DP  RH WIND       PRES   REMARKS
GRAND ISLAND   CLOUDY    65  59  81 SE12      30.05R
AURORA         CLOUDY    66  59  79 SE13      30.05S
HASTINGS       CLOUDY    64  59  83 SE9       30.04S
HEBRON         CLOUDY    66  61  84 SE6       30.04F
HOLDREGE       CLOUDY    62  58  88 SE8       30.04R
KEARNEY *      CLOUDY    63  57  82 SE9       30.03S
YORK           CLOUDY    63  61  94 S9        30.05S
$$

NEZ011>018-030>034-042>045-281500-
NORTHEAST NEBRASKA

CITY           SKY/WX    TMP DP  RH WIND       PRES   REMARKS
NORFOLK        PTSUNNY   71  58  63 S17G26    30.03F
ALBION         PTSUNNY   67  57  71 SE14G20   30.03S
BLAIR          CLOUDY    67  55  65 S12       30.06F
COLUMBUS *     CLOUDY    64  57  77 S12       30.05F
FREMONT        CLOUDY    67  57  69 SE8       30.06S
TEKAMAH        CLOUDY    67  57  70 SE8       30.05F
WAYNE          PTSUNNY   70  57  63 S21       30.04F
$$

NEZ050>053-065>068-078-088>093-281500-
SOUTHEAST NEBRASKA

CITY           SKY/WX    TMP DP  RH WIND       PRES   REMARKS
LINCOLN        CLOUDY    65  62  90 S10       30.05F
OMAHA EPPLEY   CLOUDY    68  57  68 S10       30.06F
BEATRICE       LGT RAIN  63  61  96 E3        30.04F
NEBRASKA CITY  CLOUDY    64  62  93 CALM      30.07F
PLATTSMOUTH    LGT RAIN  64  57  79 SE8       30.06F
$$

NEZ044-045-051>053-067-281500-
OMAHA AREA

CITY           SKY/WX    TMP DP  RH WIND       PRES   REMARKS
OMAHA EPPLEY   CLOUDY    68  57  68 S10       30.06F
BLAIR          CLOUDY    67  55  65 S12       30.06F
FREMONT        CLOUDY    67  57  69 SE8       30.06S
MILLARD        CLOUDY    67  59  74 SE8       30.06F
OFFUTT AFB     CLOUDY    66  58  75 SE10      30.06F
PLATTSMOUTH    LGT RAIN  64  57  79 SE8       30.06F
WAHOO          PTSUNNY   66  59  79 S7        30.06S
$$



USA.gov is the U.S. government's official web portal to all federal, state and local government web resources and services.